ITY1274 LIRN-LIRF

Flight info

Callsign ITY1274
Flight time 0h 46m
Altitude 22000
Route SIPRO DCT LAT
Aircraft A320/M-SDE3FGHIRWY/LB1

Departure

Time 2026-05-05 15:19
Airport Naples International Airport (LIRN)

Arrival

Time 2026-05-05 16:06
Airport Rome–Fiumicino Leonardo da Vinci International Airport (LIRF)
Time Latitude Longitude Altitude Speed Heading
2026-05-05 14:58 40.87874 14.28342 290 ft 0 kts 187°
2026-05-05 15:08 40.87881 14.28343 291 ft 2 kts 187°
2026-05-05 15:08 40.87894 14.28346 295 ft 2 kts 187°
2026-05-05 15:08 40.87908 14.28348 292 ft 2 kts 186°
2026-05-05 15:09 40.87921 14.28350 293 ft 2 kts 182°
2026-05-05 15:09 40.87932 14.28350 292 ft 1 kts 169°
2026-05-05 15:09 40.87938 14.28350 291 ft 1 kts 143°
2026-05-05 15:09 40.87943 14.28346 292 ft 1 kts 110°
2026-05-05 15:10 40.87945 14.28339 292 ft 1 kts 99°
2026-05-05 15:10 40.87946 14.28332 291 ft 1 kts 97°
2026-05-05 15:10 40.87946 14.28330 291 ft 0 kts 97°
2026-05-05 15:12 40.87946 14.28331 291 ft 0 kts 97°
2026-05-05 15:12 40.87944 14.28349 292 ft 7 kts 97°
2026-05-05 15:13 40.87938 14.28423 288 ft 8 kts 93°
2026-05-05 15:13 40.87966 14.28487 286 ft 9 kts 42°
2026-05-05 15:13 40.88009 14.28543 285 ft 9 kts 52°
2026-05-05 15:13 40.88048 14.28610 283 ft 9 kts 52°
2026-05-05 15:14 40.88094 14.28688 281 ft 14 kts 52°
2026-05-05 15:14 40.88158 14.28800 279 ft 16 kts 53°
2026-05-05 15:14 40.88235 14.28932 275 ft 19 kts 52°
2026-05-05 15:14 40.88316 14.29073 272 ft 21 kts 53°
2026-05-05 15:15 40.88411 14.29237 268 ft 23 kts 53°
2026-05-05 15:15 40.88500 14.29390 264 ft 18 kts 52°
2026-05-05 15:15 40.88584 14.29537 259 ft 20 kts 52°
2026-05-05 15:15 40.88677 14.29698 255 ft 24 kts 52°
2026-05-05 15:16 40.88772 14.29862 250 ft 19 kts 52°
2026-05-05 15:16 40.88860 14.30014 244 ft 23 kts 53°
2026-05-05 15:16 40.88942 14.30158 239 ft 18 kts 52°
2026-05-05 15:16 40.89014 14.30258 237 ft 14 kts 19°
2026-05-05 15:17 40.89059 14.30242 234 ft 3 kts 331°
2026-05-05 15:17 40.89077 14.30229 234 ft 2 kts 329°
2026-05-05 15:17 40.89088 14.30219 234 ft 2 kts 328°
2026-05-05 15:17 40.89112 14.30194 237 ft 7 kts 307°
2026-05-05 15:18 40.89106 14.30142 240 ft 0 kts 237°
2026-05-05 15:18 40.89099 14.30127 236 ft 15 kts 237°
2026-05-05 15:18 40.88898 14.29701 251 ft 90 kts 238°
2026-05-05 15:19 40.88463 14.28777 277 ft 144 kts 238°
2026-05-05 15:19 40.87904 14.27591 766 ft 152 kts 237°
2026-05-05 15:19 40.87110 14.26662 1421 ft 156 kts 199°
2026-05-05 15:19 40.85972 14.26608 1734 ft 180 kts 163°
2026-05-05 15:20 40.84704 14.26921 2261 ft 188 kts 171°
2026-05-05 15:20 40.83399 14.27103 2900 ft 189 kts 174°
2026-05-05 15:20 40.82084 14.27259 3569 ft 191 kts 175°
2026-05-05 15:20 40.80762 14.27412 4285 ft 191 kts 176°
2026-05-05 15:21 40.79427 14.27568 4964 ft 194 kts 177°
2026-05-05 15:21 40.78079 14.27729 5621 ft 196 kts 178°
2026-05-05 15:21 40.76712 14.27894 6263 ft 198 kts 178°
2026-05-05 15:21 40.75330 14.28065 6894 ft 201 kts 178°
2026-05-05 15:22 40.73934 14.28239 7522 ft 202 kts 178°
2026-05-05 15:22 40.72576 14.28788 8114 ft 213 kts 148°
2026-05-05 15:22 40.71695 14.30417 8440 ft 240 kts 104°
2026-05-05 15:22 40.71662 14.32663 8908 ft 254 kts 80°
2026-05-05 15:23 40.72058 14.34965 9575 ft 260 kts 78°
2026-05-05 15:23 40.72425 14.37323 10297 ft 265 kts 79°
2026-05-05 15:23 40.72930 14.39660 10990 ft 267 kts 60°
2026-05-05 15:23 40.74134 14.41493 11678 ft 266 kts 30°
2026-05-05 15:24 40.75875 14.42377 12059 ft 278 kts
2026-05-05 15:24 40.77844 14.42119 12324 ft 296 kts 346°
2026-05-05 15:24 40.79944 14.41575 12589 ft 319 kts 346°
2026-05-05 15:24 40.82205 14.40985 12807 ft 343 kts 346°
2026-05-05 15:25 40.84622 14.40363 13000 ft 365 kts 346°
2026-05-05 15:25 40.87156 14.39722 13524 ft 374 kts 347°
2026-05-05 15:25 40.89743 14.39083 14148 ft 379 kts 347°
2026-05-05 15:25 40.92289 14.38163 14763 ft 380 kts 335°
2026-05-05 15:26 40.94586 14.36464 15418 ft 378 kts 321°
2026-05-05 15:26 40.96613 14.34241 16088 ft 379 kts 317°
2026-05-05 15:26 40.98631 14.31978 16758 ft 381 kts 317°
2026-05-05 15:26 41.00661 14.29706 17443 ft 383 kts 317°
2026-05-05 15:27 41.02700 14.27425 18115 ft 385 kts 317°
2026-05-05 15:27 41.04752 14.25130 18715 ft 387 kts 317°
2026-05-05 15:27 41.06822 14.22812 19257 ft 390 kts 317°
2026-05-05 15:27 41.08901 14.20482 19786 ft 393 kts 316°
2026-05-05 15:28 41.10974 14.18153 20310 ft 396 kts 316°
2026-05-05 15:28 41.13089 14.15773 20774 ft 401 kts 317°
2026-05-05 15:28 41.15225 14.13367 21269 ft 404 kts 317°
2026-05-05 15:28 41.17372 14.10946 21768 ft 406 kts 317°
2026-05-05 15:29 41.19534 14.08510 22044 ft 408 kts 317°
2026-05-05 15:29 41.21725 14.06046 22086 ft 418 kts 317°
2026-05-05 15:29 41.23974 14.03510 22088 ft 429 kts 317°
2026-05-05 15:29 41.26261 14.00927 22084 ft 432 kts 317°
2026-05-05 15:30 41.28543 13.98297 22081 ft 432 kts 314°
2026-05-05 15:30 41.30547 13.95338 22086 ft 430 kts 305°
2026-05-05 15:30 41.32257 13.92087 22085 ft 429 kts 302°
2026-05-05 15:30 41.33946 13.88811 22086 ft 429 kts 302°
2026-05-05 15:31 41.35634 13.85534 22094 ft 429 kts 302°
2026-05-05 15:31 41.37321 13.82257 22083 ft 429 kts 303°
2026-05-05 15:31 41.39006 13.78982 22084 ft 429 kts 302°
2026-05-05 15:31 41.40687 13.75706 22081 ft 429 kts 302°
2026-05-05 15:32 41.42368 13.72428 22080 ft 428 kts 302°
2026-05-05 15:32 41.43842 13.68987 22077 ft 427 kts 293°
2026-05-05 15:32 41.44863 13.65289 22076 ft 425 kts 284°
2026-05-05 15:32 41.45449 13.61432 22074 ft 425 kts 279°
2026-05-05 15:33 41.45936 13.57547 22077 ft 425 kts 279°
2026-05-05 15:33 41.46262 13.54970 22076 ft 425 kts 279°
2026-05-05 15:33 41.46756 13.51098 21852 ft 422 kts 279°
2026-05-05 15:33 41.47248 13.47247 21597 ft 420 kts 279°
2026-05-05 15:34 41.47892 13.42164 21264 ft 418 kts 279°
2026-05-05 15:34 41.48372 13.38369 20686 ft 412 kts 278°
2026-05-05 15:34 41.48691 13.35834 20262 ft 410 kts 278°
2026-05-05 15:34 41.49159 13.32099 19623 ft 406 kts 278°
2026-05-05 15:35 41.49621 13.28405 19004 ft 402 kts 278°
2026-05-05 15:35 41.50075 13.24748 18399 ft 398 kts 278°
2026-05-05 15:35 41.50674 13.19905 17583 ft 392 kts 278°
2026-05-05 15:35 41.50967 13.17541 17226 ft 388 kts 278°
2026-05-05 15:36 41.51400 13.14045 17062 ft 375 kts 278°
2026-05-05 15:36 41.51816 13.10671 16917 ft 362 kts 278°
2026-05-05 15:36 41.52215 13.07419 16787 ft 349 kts 278°
2026-05-05 15:36 41.52599 13.04282 16660 ft 336 kts 278°
2026-05-05 15:37 41.52966 13.01258 16534 ft 325 kts 278°
2026-05-05 15:37 41.53324 12.98327 16402 ft 314 kts 278°
2026-05-05 15:37 41.53666 12.95535 16188 ft 303 kts 278°
2026-05-05 15:37 41.54259 12.92830 15924 ft 301 kts 292°
2026-05-05 15:38 41.55326 12.90455 15683 ft 304 kts 306°
2026-05-05 15:38 41.56815 12.88437 15439 ft 306 kts 314°
2026-05-05 15:38 41.58370 12.86506 15196 ft 305 kts 313°
2026-05-05 15:38 41.59919 12.84573 14955 ft 304 kts 313°
2026-05-05 15:39 41.61465 12.82640 14717 ft 303 kts 313°
2026-05-05 15:39 41.62998 12.80728 14478 ft 302 kts 313°
2026-05-05 15:39 41.64532 12.78815 14240 ft 301 kts 313°
2026-05-05 15:39 41.66059 12.76909 14004 ft 300 kts 313°
2026-05-05 15:40 41.67586 12.75000 13731 ft 300 kts 313°
2026-05-05 15:40 41.69107 12.73093 13470 ft 299 kts 313°
2026-05-05 15:40 41.70625 12.71185 13213 ft 298 kts 313°
2026-05-05 15:40 41.72133 12.69286 12952 ft 297 kts 313°
2026-05-05 15:41 41.73621 12.67412 12695 ft 296 kts 313°
2026-05-05 15:41 41.75122 12.65531 12439 ft 295 kts 313°
2026-05-05 15:41 41.76620 12.63650 12188 ft 294 kts 313°
2026-05-05 15:41 41.78111 12.61778 11933 ft 293 kts 313°
2026-05-05 15:42 41.79599 12.59907 11682 ft 293 kts 313°
2026-05-05 15:42 41.81073 12.58037 11437 ft 291 kts 313°
2026-05-05 15:42 41.82515 12.56135 11187 ft 290 kts 311°
2026-05-05 15:42 41.83932 12.54218 10948 ft 288 kts 311°
2026-05-05 15:43 41.85337 12.52296 10704 ft 289 kts 311°
2026-05-05 15:43 41.86740 12.50381 10460 ft 286 kts 311°
2026-05-05 15:43 41.88131 12.48491 10218 ft 281 kts 311°
2026-05-05 15:43 41.89554 12.46772 9983 ft 270 kts 322°
2026-05-05 15:44 41.91210 12.45614 9860 ft 270 kts 338°
2026-05-05 15:44 41.93003 12.44859 9732 ft 271 kts 340°
2026-05-05 15:44 41.94801 12.44114 9608 ft 270 kts 339°
2026-05-05 15:44 41.96589 12.43372 9479 ft 269 kts 339°
2026-05-05 15:45 41.98374 12.42629 9350 ft 268 kts 340°
2026-05-05 15:45 42.00131 12.41900 9219 ft 267 kts 340°
2026-05-05 15:45 42.01906 12.41163 9089 ft 267 kts 340°
2026-05-05 15:45 42.03677 12.40424 8975 ft 266 kts 339°
2026-05-05 15:46 42.05445 12.39688 8834 ft 266 kts 338°
2026-05-05 15:46 42.07205 12.38953 8710 ft 265 kts 338°
2026-05-05 15:46 42.08965 12.38220 8573 ft 265 kts 338°
2026-05-05 15:46 42.10718 12.37492 8443 ft 258 kts 339°
2026-05-05 15:47 42.12411 12.36790 8317 ft 255 kts 339°
2026-05-05 15:47 42.13532 12.36321 8238 ft 254 kts 339°
2026-05-05 15:47 42.15785 12.35376 8068 ft 253 kts 339°
2026-05-05 15:47 42.17467 12.34669 7941 ft 252 kts 338°
2026-05-05 15:48 42.19144 12.33964 7814 ft 252 kts 338°
2026-05-05 15:48 42.20816 12.33257 7691 ft 252 kts 339°
2026-05-05 15:48 42.22487 12.32551 7570 ft 251 kts 338°
2026-05-05 15:48 42.24152 12.31847 7449 ft 251 kts 338°
2026-05-05 15:49 42.25819 12.31142 7324 ft 251 kts 340°
2026-05-05 15:49 42.27483 12.30439 7202 ft 250 kts 339°
2026-05-05 15:49 42.29142 12.29738 7078 ft 249 kts 339°
2026-05-05 15:49 42.30795 12.29040 6961 ft 249 kts 339°
2026-05-05 15:50 42.32451 12.28339 6837 ft 249 kts 339°
2026-05-05 15:50 42.34106 12.27641 6716 ft 249 kts 338°
2026-05-05 15:50 42.35762 12.26946 6596 ft 248 kts 338°
2026-05-05 15:50 42.37404 12.26254 6478 ft 247 kts 339°
2026-05-05 15:51 42.39044 12.25559 6353 ft 247 kts 338°
2026-05-05 15:51 42.40509 12.24455 6222 ft 239 kts 311°
2026-05-05 15:51 42.41364 12.22645 6096 ft 228 kts 282°
2026-05-05 15:51 42.41484 12.20549 5968 ft 226 kts 257°
2026-05-05 15:52 42.41045 12.18512 5848 ft 226 kts 251°
2026-05-05 15:52 42.40566 12.16478 5709 ft 228 kts 251°
2026-05-05 15:52 42.40092 12.14450 5597 ft 226 kts 250°
2026-05-05 15:52 42.39624 12.12440 5466 ft 225 kts 250°
2026-05-05 15:53 42.38864 12.10672 5335 ft 214 kts 220°
2026-05-05 15:53 42.37540 12.09909 5200 ft 208 kts 185°
2026-05-05 15:53 42.36157 12.10338 5073 ft 206 kts 158°
2026-05-05 15:53 42.34879 12.11100 4944 ft 195 kts 166°
2026-05-05 15:54 42.33607 12.11622 4988 ft 190 kts 169°
2026-05-05 15:54 42.32332 12.12098 5006 ft 190 kts 169°
2026-05-05 15:54 42.31060 12.12578 5007 ft 191 kts 169°
2026-05-05 15:54 42.29776 12.13077 5009 ft 192 kts 168°
2026-05-05 15:55 42.28493 12.13587 5007 ft 192 kts 168°
2026-05-05 15:55 42.27213 12.14106 5007 ft 192 kts 168°
2026-05-05 15:55 42.25953 12.14624 5008 ft 192 kts 167°
2026-05-05 15:55 42.24680 12.15153 5005 ft 191 kts 167°
2026-05-05 15:56 42.23405 12.15685 5006 ft 192 kts 167°
2026-05-05 15:56 42.22129 12.16219 4937 ft 193 kts 167°
2026-05-05 15:56 42.20851 12.16756 4752 ft 192 kts 167°
2026-05-05 15:56 42.19565 12.16830 4590 ft 183 kts 199°
2026-05-05 15:57 42.18351 12.16334 4454 ft 183 kts 194°
2026-05-05 15:57 42.17106 12.15956 4312 ft 183 kts 193°
2026-05-05 15:57 42.15884 12.15590 4240 ft 177 kts 194°
2026-05-05 15:57 42.14700 12.15234 4076 ft 172 kts 193°
2026-05-05 15:58 42.13543 12.14889 3845 ft 169 kts 192°
2026-05-05 15:58 42.12385 12.14819 3650 ft 164 kts 176°
2026-05-05 15:58 42.11282 12.15065 3503 ft 157 kts 170°
2026-05-05 15:58 42.10258 12.15415 3381 ft 147 kts 168°
2026-05-05 15:59 42.09287 12.15791 3271 ft 143 kts 167°
2026-05-05 15:59 42.08330 12.16179 3158 ft 144 kts 167°
2026-05-05 15:59 42.07381 12.16572 3058 ft 142 kts 167°
2026-05-05 15:59 42.06438 12.16967 2966 ft 141 kts 166°
2026-05-05 16:00 42.05498 12.17362 2938 ft 142 kts 165°
2026-05-05 16:00 42.04554 12.17759 2907 ft 142 kts 165°
2026-05-05 16:00 42.03623 12.18151 2867 ft 142 kts 165°
2026-05-05 16:00 42.02685 12.18547 2827 ft 141 kts 166°
2026-05-05 16:01 42.01744 12.18943 2755 ft 143 kts 165°
2026-05-05 16:01 42.00800 12.19341 2705 ft 142 kts 165°
2026-05-05 16:01 41.99858 12.19738 2637 ft 142 kts 164°
2026-05-05 16:01 41.98914 12.20135 2568 ft 141 kts 164°
2026-05-05 16:02 41.97980 12.20528 2519 ft 141 kts 165°
2026-05-05 16:02 41.97040 12.20923 2490 ft 141 kts 165°
2026-05-05 16:02 41.96103 12.21318 2369 ft 142 kts 164°
2026-05-05 16:02 41.95160 12.21714 2194 ft 141 kts 165°
2026-05-05 16:03 41.94227 12.22106 2023 ft 139 kts 162°
2026-05-05 16:03 41.93301 12.22496 1848 ft 139 kts 163°
2026-05-05 16:03 41.92385 12.22880 1666 ft 138 kts 162°
2026-05-05 16:03 41.91466 12.23267 1476 ft 139 kts 162°
2026-05-05 16:04 41.90545 12.23653 1291 ft 138 kts 162°
2026-05-05 16:04 41.89627 12.24039 1095 ft 138 kts 164°
2026-05-05 16:04 41.88706 12.24425 908 ft 138 kts 163°
2026-05-05 16:04 41.87791 12.24809 730 ft 137 kts 161°
2026-05-05 16:05 41.86888 12.25188 539 ft 138 kts 160°
2026-05-05 16:05 41.85971 12.25571 367 ft 136 kts 164°
2026-05-05 16:05 41.85069 12.25958 186 ft 137 kts 165°
2026-05-05 16:05 41.84167 12.26332 53 ft 135 kts 162°
2026-05-05 16:06 41.83344 12.26679 12 ft 99 kts 163°
2026-05-05 16:06 41.82979 12.26829 12 ft 34 kts 164°
2026-05-05 16:06 41.82801 12.26867 13 ft 26 kts 175°
2026-05-05 16:06 41.82644 12.26852 10 ft 15 kts 191°
2026-05-05 16:07 41.82535 12.26822 12 ft 17 kts 191°
2026-05-05 16:07 41.82419 12.26786 11 ft 18 kts 191°
2026-05-05 16:07 41.82297 12.26800 11 ft 18 kts 164°
2026-05-05 16:07 41.82171 12.26845 11 ft 19 kts 163°
2026-05-05 16:08 41.82044 12.26897 11 ft 14 kts 163°
2026-05-05 16:08 41.81946 12.26938 11 ft 16 kts 162°
2026-05-05 16:08 41.81836 12.26984 12 ft 17 kts 162°
2026-05-05 16:08 41.81716 12.27033 12 ft 19 kts 162°
2026-05-05 16:09 41.81593 12.27085 12 ft 16 kts 161°
2026-05-05 16:09 41.81486 12.27130 12 ft 17 kts 162°
2026-05-05 16:09 41.81372 12.27177 12 ft 18 kts 163°
2026-05-05 16:09 41.81249 12.27228 12 ft 19 kts 163°
2026-05-05 16:10 41.81121 12.27282 12 ft 19 kts 162°
2026-05-05 16:10 41.81005 12.27331 12 ft 15 kts 162°
2026-05-05 16:10 41.80900 12.27348 12 ft 16 kts 186°
2026-05-05 16:10 41.80782 12.27323 13 ft 18 kts 189°
2026-05-05 16:11 41.80670 12.27257 13 ft 18 kts 229°
2026-05-05 16:11 41.80544 12.26821 16 ft 16 kts 250°
2026-05-05 16:12 41.80506 12.26684 15 ft 15 kts 249°
2026-05-05 16:12 41.80443 12.26453 17 ft 12 kts 250°
2026-05-05 16:13 41.80266 12.26411 14 ft 10 kts 161°